N9XP-9 Weather Reports


time (UTC)temp
F
wind
direction
speed
knots
gust
knots
rain 1hr
in
rain 24hr
in
rain mn
in
humidity
%
barometer
mb
20260503184528 59 167 4.3 13.9 0.00 0.03 0.03 59 1009.8
20260503183024 58 115 5.2 13.9 0.00 0.03 0.03 63 1010.2
20260503181520 55 132 6.1 13.0 0.00 0.03 0.03 65 1010.5
20260503180016 55 124 3.5 14.8 0.01 0.03 0.03 69 1010.9
20260503174511 54 126 2.6 9.6 0.01 0.03 0.03 72 1011.1
20260503173009 51 141 3.5 10.4 0.01 0.03 0.03 79 1012.0
20260503171507 50 109 2.6 9.6 0.02 0.03 0.03 82 1012.3
20260503160116 48 151 1.7 5.2 0.01 0.01 0.01 85 1014.1
20260503081556 43 108 0.0 1.7 0.00 0.00 0.00 66 1015.7
20260503071553 42 134 0.0 0.9 0.00 0.00 0.00 67 1015.9
20260503060107 42 142 0.0 0.9 0.00 0.00 0.00 66 1016.6
20260503054541 42 126 0.0 0.9 0.00 0.00 0.00 66 1016.7
20260503053039 42 138 0.0 0.0 0.00 0.00 0.00 65 1016.8
20260503051536 42 136 0.0 0.0 0.00 0.00 0.00 65 1016.8
20260503050035 43 136 0.0 0.9 0.00 0.00 0.00 64 1017.0
20260503044534 43 154 0.0 0.9 0.00 0.00 0.00 65 1016.9
20260503043041 43 127 0.0 0.9 0.00 0.00 0.00 65 1017.0
20260503041531 44 127 0.0 0.9 0.00 0.00 0.00 62 1017.1
20260503040030 44 122 0.0 0.9 0.00 0.00 0.00 62 1017.2
20260503034529 43 133 0.0 0.9 0.00 0.00 0.00 66 1017.3
20260503033034 43 134 0.0 0.9 0.00 0.00 0.00 68 1017.3
20260503031528 43 135 0.0 0.0 0.00 0.00 0.00 67 1017.3
20260503030027 44 133 0.0 0.9 0.00 0.00 0.00 65 1017.3
20260503024529 44 132 0.0 0.0 0.00 0.00 0.00 64 1017.4
20260503023026 45 132 0.0 0.0 0.00 0.00 0.00 63 1017.3
20260503021540 46 135 0.0 0.0 0.00 0.00 0.00 60 1017.4
20260503020026 46 132 0.0 0.9 0.00 0.00 0.00 57 1017.3
20260503014524 47 136 0.0 0.9 0.00 0.00 0.00 56 1017.2
20260503013024 48 137 0.0 0.0 0.00 0.00 0.00 54 1017.2
20260503011524 49 138 0.0 0.9 0.00 0.00 0.00 50 1017.2
20260503010023 50 199 0.0 0.9 0.00 0.00 0.00 48 1017.2
20260503004522 52 141 0.0 1.7 0.00 0.00 0.00 45 1017.1
20260503003021 53 224 0.0 3.5 0.00 0.00 0.00 43 1017.1
20260503001520 53 170 0.9 2.6 0.00 0.00 0.00 41 1017.2
20260503000020 54 183 0.9 3.5 0.00 0.00 0.00 39 1017.2
20260502234518 55 70 0.9 7.0 0.00 0.00 0.00 39 1017.3
20260502233018 56 243 0.9 6.1 0.00 0.00 0.00 37 1017.5
20260502231522 55 345 0.9 4.3 0.00 0.00 0.00 39 1017.5
20260502230016 56 237 0.9 4.3 0.00 0.00 0.00 37 1017.6
20260502224525 56 343 0.9 2.6 0.00 0.00 0.00 39 1017.7
20260502223014 55 287 0.9 5.2 0.00 0.00 0.00 38 1017.8
20260502221512 56 359 1.7 5.2 0.00 0.00 0.00 38 1017.7
20260502220014 56 158 0.9 5.2 0.00 0.00 0.00 37 1017.9
20260502214504 56 323 0.9 6.1 0.00 0.00 0.00 39 1017.9
20260502213008 56 226 0.9 7.0 0.00 0.00 0.00 37 1018.1
20260502211502 57 172 1.7 6.1 0.00 0.00 0.00 38 1018.0
20260502210001 57 139 1.7 7.0 0.00 0.00 0.00 38 1018.2
20260502204604 54 341 1.7 5.2 0.00 0.00 0.00 40 1018.4
20260502203103 54 191 0.9 3.5 0.00 0.00 0.00 41 1018.6
20260502201556 55 34 0.0 5.2 0.00 0.00 0.00 40 1018.7
20260502200115 55 217 1.7 7.0 0.00 0.00 0.00 39 1019.0
20260502194604 55 284 2.6 6.1 0.00 0.00 0.00 38 1019.2
20260502193046 54 359 1.7 5.2 0.00 0.00 0.00 42 1019.5
20260502191549 52 220 0.0 7.0 0.00 0.00 0.00 42 1019.6
20260502190044 53 27 0.9 5.2 0.00 0.00 0.00 40 1019.7